This demonstration page uses our WeatherBlox Daily Observations layout. Learn more.

Left ArrowRight Arrow

44.8408, -93.29828

Hourly Observations for September 16, 2021

Temp ( °F °C ) Dew Point ( °F °C ) Humidity (%) Winds ( mph kmh ) Pressure ( in mb ) Visibility ( mi km ) Precip ( " mm )
12:53 am 00:53 Cloudy 68 20 48 8.9 49 49 S 14 22 29.90 1013 10 16 0.00 0.00
1:53 am 01:53 Cloudy 68 20 49 9.4 51 51 S 12 19 29.89 1012 10 16 0.00 0.00
2:53 am 02:53 Cloudy 69 20.6 51 10.6 53 53 S 12 19 29.88 1012 10 16 0.00 0.00
3:53 am 03:53 Cloudy 70 21.1 52 11.1 53 53 S 13 20 29.86 1011 10 16 0.00 0.00
4:53 am 04:53 Mostly Cloudy 68 20 52 11.1 57 57 S 15 24 29.86 1011 10 16 0.00 0.00
5:53 am 05:53 Mostly Cloudy 68 20 53 11.7 59 59 S 14 22 29.85 1011 10 16 0.00 0.00
6:53 am 06:53 Partly Cloudy 67 19.4 52 11.1 59 59 S 13 20 29.86 1011 10 16 0.00 0.00
7:53 am 07:53 Partly Cloudy 67 19.4 52 11.1 59 59 S 13 20 29.86 1011 10 16 0.00 0.00
8:53 am 08:53 Mostly Cloudy 69 20.6 54 12.2 59 59 S 14 22 29.85 1011 10 16 0.00 0.00
9:53 am 09:53 Mostly Sunny 72 22.2 55 12.8 55 55 SSE 15 24 29.83 1010 10 16 0.00 0.00
10:53 am 10:53 Mostly Sunny 76 24.4 58 14.4 54 54 S 18 30 29.81 1010 10 16 0.00 0.00
11:53 am 11:53 Mostly Sunny 79 26.1 59 15 50 50 S 16 26 29.80 1009 10 16 0.00 0.00
12:53 pm 12:53 Sunny 82 27.8 61 16.1 49 49 S 14 22 29.77 1008 10 16 0.00 0.00
1:53 pm 13:53 Sunny 85 29.4 62 16.7 46 46 S 22 35 29.74 1007 10 16 0.00 0.00
2:53 pm 14:53 Sunny 86 30 61 16.1 43 43 S 26 43 29.72 1006 10 16 0.00 0.00
3:53 pm 15:53 Sunny 87 30.6 62 16.7 43 43 S 25 41 29.70 1006 10 16 0.00 0.00
4:53 pm 16:53 Mostly Sunny 88 31.1 61 16.1 40 40 S 24 39 29.69 1006 10 16 0.00 0.00
5:53 pm 17:53 Mostly Sunny 87 30.6 61 16.1 42 42 S 26 43 29.69 1005 10 16 0.00 0.00
6:53 pm 18:53 Mostly Sunny 85 29.4 60 15.6 43 43 S 20 31 29.68 1005 10 16 0.00 0.00
7:53 pm 19:53 Mostly Cloudy 83 28.3 62 16.7 49 49 S 13 20 29.72 1006 10 16 0.00 0.00
8:53 pm 20:53 Cloudy 82 27.8 62 16.7 51 51 S 15 24 29.76 1008 10 16 0.00 0.00
9:53 pm 21:53 Mostly Cloudy 81 27.2 62 16.7 53 53 S 15 24 29.77 1008 10 16 0.00 0.00
10:07 pm 22:07 Mostly Cloudy with Nearby Thunderstorms 81 27.2 62 16.7 53 53 S 14 22 29.75 1007 10 16 0.00 0.00
10:22 pm 22:22 Mostly Cloudy 81 27.2 62 16.7 53 53 S 13 20 29.75 1007 10 16 0.00 0.00
10:53 pm 22:53 Mostly Clear 80 26.7 62 16.7 54 54 S 15 24 29.76 1008 10 16 0.00 0.00
11:53 pm 23:53 Clear 77 25 63 17.2 62 62 S 16 26 29.74 1007 10 16 0.00 0.00

Powered by AerisWeather